Terminal Aerodrome Forecast
Issued by NWS Boston, MA

Home | Current Version | Previous Version | Text Only | Print | Product List | Glossary On
Versions: 1 2 3 4 5 6 7 8 9 10 11 12 13 14 15 16 17 18 19 20 21 22 23 24 25 26 27 28 29 30 31 32 33 34 35 36 37 38 39 40 41 42 43 44 45 46 47 48 49 50
000
FTUS41 KBOX 180540
TAFBOS
TAF
KBOS 180540Z 1806/1912 06008KT P6SM FEW025 SCT250
     FM181200 07008KT P6SM BKN020
     FM181600 08007KT P6SM BKN250
     FM190200 16004KT P6SM BKN150
     FM190500 22004KT P6SM BKN140=

USA.gov is the U.S. government's official web portal to all federal, state and local government web resources and services.